Year,Month,Day,Hour,Minute,Value (Times are PST for temperature in C)
2013,04,22,00,00,2.90
2013,04,22,00,01,2.90
2013,04,22,00,02,2.90
2013,04,22,00,03,2.90
2013,04,22,00,04,2.90
2013,04,22,00,05,2.90
2013,04,22,00,06,2.90
2013,04,22,00,07,2.90
2013,04,22,00,08,2.90
2013,04,22,00,09,2.90
2013,04,22,00,10,2.90
2013,04,22,00,11,2.80
2013,04,22,00,12,2.80
2013,04,22,00,13,2.80
2013,04,22,00,14,2.70
2013,04,22,00,15,2.70
2013,04,22,00,16,2.70
2013,04,22,00,17,2.70
2013,04,22,00,18,2.60
2013,04,22,00,19,2.60
2013,04,22,00,20,2.60
2013,04,22,00,21,2.70
2013,04,22,00,22,2.70
2013,04,22,00,23,2.70
2013,04,22,00,24,2.70
2013,04,22,00,25,2.70
2013,04,22,00,26,2.70
2013,04,22,00,27,2.70
2013,04,22,00,28,2.70
2013,04,22,00,29,2.70
2013,04,22,00,30,2.70
2013,04,22,00,31,2.70
2013,04,22,00,32,2.70
2013,04,22,00,33,2.70
2013,04,22,00,34,2.70
2013,04,22,00,35,2.70
2013,04,22,00,36,2.70
2013,04,22,00,37,2.70
2013,04,22,00,38,2.70
2013,04,22,00,39,2.70
2013,04,22,00,40,2.70
2013,04,22,00,41,2.70
2013,04,22,00,42,2.50
2013,04,22,00,43,2.50
2013,04,22,00,44,2.40
2013,04,22,00,45,2.30
2013,04,22,00,46,2.20
2013,04,22,00,47,2.20
2013,04,22,00,48,2.20
2013,04,22,00,49,2.20
2013,04,22,00,50,2.20
2013,04,22,00,51,2.20
2013,04,22,00,52,2.20
2013,04,22,00,53,2.20
2013,04,22,00,54,2.20
2013,04,22,00,55,2.40
2013,04,22,00,56,2.50
2013,04,22,00,57,2.60
2013,04,22,00,58,2.60
2013,04,22,00,59,2.60
2013,04,22,01,00,2.60
2013,04,22,01,01,2.60
2013,04,22,01,02,2.70
2013,04,22,01,03,2.70
2013,04,22,01,04,2.70
2013,04,22,01,05,2.70
2013,04,22,01,06,2.70
2013,04,22,01,07,2.70
2013,04,22,01,08,2.70
2013,04,22,01,09,2.60
2013,04,22,01,10,2.60
2013,04,22,01,11,2.50
2013,04,22,01,12,2.50
2013,04,22,01,13,2.50
2013,04,22,01,14,2.40
2013,04,22,01,15,2.30
2013,04,22,01,16,2.30
2013,04,22,01,17,2.30
2013,04,22,01,18,2.20
2013,04,22,01,19,2.20
2013,04,22,01,20,2.20
2013,04,22,01,21,2.20
2013,04,22,01,22,2.20
2013,04,22,01,23,2.10
2013,04,22,01,24,2.10
2013,04,22,01,25,2.10
2013,04,22,01,26,2.10
2013,04,22,01,27,2.10
2013,04,22,01,28,2.00
2013,04,22,01,29,2.00
2013,04,22,01,30,2.10
2013,04,22,01,31,2.10
2013,04,22,01,32,2.10
2013,04,22,01,33,2.10
2013,04,22,01,34,2.10
2013,04,22,01,35,2.10
2013,04,22,01,36,2.10
2013,04,22,01,37,2.10
2013,04,22,01,38,2.10
2013,04,22,01,39,2.10
2013,04,22,01,40,2.00
2013,04,22,01,41,2.00
2013,04,22,01,42,1.90
2013,04,22,01,43,1.90
2013,04,22,01,44,1.90
2013,04,22,01,45,1.90
2013,04,22,01,46,1.90
2013,04,22,01,47,1.90
2013,04,22,01,48,1.90
2013,04,22,01,49,1.90
2013,04,22,01,50,1.90
2013,04,22,01,51,1.90
2013,04,22,01,52,1.90
2013,04,22,01,53,1.90
2013,04,22,01,54,1.90
2013,04,22,01,55,1.90
2013,04,22,01,56,1.90
2013,04,22,01,57,1.90
2013,04,22,01,58,1.90
2013,04,22,01,59,1.90
2013,04,22,02,00,1.80
2013,04,22,02,01,1.80
2013,04,22,02,02,1.80
2013,04,22,02,03,1.80
2013,04,22,02,04,1.80
2013,04,22,02,05,1.80
2013,04,22,02,06,1.80
2013,04,22,02,07,1.70
2013,04,22,02,08,1.70
2013,04,22,02,09,1.70
2013,04,22,02,10,1.70
2013,04,22,02,11,1.60
2013,04,22,02,12,1.60
2013,04,22,02,13,1.60
2013,04,22,02,14,1.60
2013,04,22,02,15,1.60
2013,04,22,02,16,1.60
2013,04,22,02,17,1.60
2013,04,22,02,18,1.60
2013,04,22,02,19,1.60
2013,04,22,02,20,1.60
2013,04,22,02,21,1.60
2013,04,22,02,22,1.60
2013,04,22,02,23,1.60
2013,04,22,02,24,1.60
2013,04,22,02,25,1.60
2013,04,22,02,26,1.60
2013,04,22,02,27,1.60
2013,04,22,02,28,1.50
2013,04,22,02,29,1.50
2013,04,22,02,30,1.50
2013,04,22,02,31,1.40
2013,04,22,02,32,1.40
2013,04,22,02,33,1.40
2013,04,22,02,34,1.30
2013,04,22,02,35,1.30
2013,04,22,02,36,1.30
2013,04,22,02,37,1.30
2013,04,22,02,38,1.30
2013,04,22,02,39,1.30
2013,04,22,02,40,1.30
2013,04,22,02,41,1.20
2013,04,22,02,42,1.20
2013,04,22,02,43,1.20
2013,04,22,02,44,1.20
2013,04,22,02,45,1.20
2013,04,22,02,46,1.20
2013,04,22,02,47,1.20
2013,04,22,02,48,1.20
2013,04,22,02,49,1.20
2013,04,22,02,50,1.30
2013,04,22,02,51,1.30
2013,04,22,02,52,1.30
2013,04,22,02,53,1.30
2013,04,22,02,54,1.30
2013,04,22,02,55,1.30
2013,04,22,02,56,1.30
2013,04,22,02,57,1.40
2013,04,22,02,58,1.40
2013,04,22,02,59,1.40
2013,04,22,03,00,1.30
2013,04,22,03,01,1.30
2013,04,22,03,02,1.30
2013,04,22,03,03,1.30
2013,04,22,03,04,1.30
2013,04,22,03,05,1.30
2013,04,22,03,06,1.30
2013,04,22,03,07,1.30
2013,04,22,03,08,1.30
2013,04,22,03,09,1.30
2013,04,22,03,10,1.20
2013,04,22,03,11,1.20
2013,04,22,03,12,1.20
2013,04,22,03,13,1.20
2013,04,22,03,14,1.10
2013,04,22,03,15,1.10
2013,04,22,03,16,1.00
2013,04,22,03,17,1.00
2013,04,22,03,18,1.00
2013,04,22,03,19,0.90
2013,04,22,03,20,0.90
2013,04,22,03,21,0.90
2013,04,22,03,22,0.90
2013,04,22,03,23,0.80
2013,04,22,03,24,0.80
2013,04,22,03,25,0.80
2013,04,22,03,26,0.80
2013,04,22,03,27,0.80
2013,04,22,03,28,0.80
2013,04,22,03,29,0.80
2013,04,22,03,30,0.80
2013,04,22,03,31,0.80
2013,04,22,03,32,0.90
2013,04,22,03,33,0.90
2013,04,22,03,34,1.00
2013,04,22,03,35,1.00
2013,04,22,03,36,1.00
2013,04,22,03,37,1.00
2013,04,22,03,38,1.10
2013,04,22,03,39,1.10
2013,04,22,03,40,1.10
2013,04,22,03,41,1.10
2013,04,22,03,42,1.00
2013,04,22,03,43,1.00
2013,04,22,03,44,1.00
2013,04,22,03,45,1.00
2013,04,22,03,46,1.00
2013,04,22,03,47,1.00
2013,04,22,03,48,1.00
2013,04,22,03,49,1.00
2013,04,22,03,50,1.00
2013,04,22,03,51,1.10
2013,04,22,03,52,1.10
2013,04,22,03,53,1.20
2013,04,22,03,54,1.20
2013,04,22,03,55,1.30
2013,04,22,03,56,1.30
2013,04,22,03,57,1.30
2013,04,22,03,58,1.30
2013,04,22,03,59,1.40
2013,04,22,04,00,1.40
2013,04,22,04,01,1.40
2013,04,22,04,02,1.40
2013,04,22,04,03,1.40
2013,04,22,04,04,1.40
2013,04,22,04,05,1.40
2013,04,22,04,06,1.40
2013,04,22,04,07,1.30
2013,04,22,04,08,1.30
2013,04,22,04,09,1.20
2013,04,22,04,10,1.20
2013,04,22,04,11,1.20
2013,04,22,04,12,1.10
2013,04,22,04,13,1.10
2013,04,22,04,14,1.10
2013,04,22,04,15,1.00
2013,04,22,04,16,0.90
2013,04,22,04,17,0.80
2013,04,22,04,18,0.80
2013,04,22,04,19,0.80
2013,04,22,04,20,0.80
2013,04,22,04,21,0.80
2013,04,22,04,22,0.90
2013,04,22,04,23,0.90
2013,04,22,04,24,1.00
2013,04,22,04,25,1.10
2013,04,22,04,26,1.20
2013,04,22,04,27,1.20
2013,04,22,04,28,1.20
2013,04,22,04,29,1.20
2013,04,22,04,30,1.40
2013,04,22,04,31,1.50
2013,04,22,04,32,1.60
2013,04,22,04,33,1.60
2013,04,22,04,34,1.70
2013,04,22,04,35,1.70
2013,04,22,04,36,1.80
2013,04,22,04,37,1.80
2013,04,22,04,38,1.80
2013,04,22,04,39,1.90
2013,04,22,04,40,2.00
2013,04,22,04,41,2.00
2013,04,22,04,42,2.10
2013,04,22,04,43,2.10
2013,04,22,04,44,2.10
2013,04,22,04,45,2.20
2013,04,22,04,46,2.20
2013,04,22,04,47,2.20
2013,04,22,04,48,2.20
2013,04,22,04,49,2.30
2013,04,22,04,50,2.30
2013,04,22,04,51,2.30
2013,04,22,04,52,2.40
2013,04,22,04,53,2.40
2013,04,22,04,54,2.40
2013,04,22,04,55,2.50
2013,04,22,04,56,2.50
2013,04,22,04,57,2.60
2013,04,22,04,58,2.60
2013,04,22,04,59,2.70
2013,04,22,05,00,2.70
2013,04,22,05,01,2.70
2013,04,22,05,02,2.70
2013,04,22,05,03,2.70
2013,04,22,05,04,2.70
2013,04,22,05,05,2.80
2013,04,22,05,06,2.80
2013,04,22,05,07,2.80
2013,04,22,05,08,2.80
2013,04,22,05,09,2.80
2013,04,22,05,10,2.80
2013,04,22,05,11,2.80
2013,04,22,05,12,2.80
2013,04,22,05,13,2.90
2013,04,22,05,14,2.90
2013,04,22,05,15,2.90
2013,04,22,05,16,3.10
2013,04,22,05,17,3.00
2013,04,22,05,18,3.00
2013,04,22,05,19,2.90
2013,04,22,05,20,2.90
2013,04,22,05,21,3.00
2013,04,22,05,22,3.10
2013,04,22,05,23,3.10
2013,04,22,05,24,3.10
2013,04,22,05,25,3.10
2013,04,22,05,26,3.10
2013,04,22,05,27,3.10
2013,04,22,05,28,3.10
2013,04,22,05,29,3.10
2013,04,22,05,30,3.10
2013,04,22,05,31,3.10
2013,04,22,05,32,3.20
2013,04,22,05,33,3.20
2013,04,22,05,34,3.20
2013,04,22,05,35,3.20
2013,04,22,05,36,3.20
2013,04,22,05,37,3.20
2013,04,22,05,38,3.20
2013,04,22,05,39,3.20
2013,04,22,05,40,3.30
2013,04,22,05,41,3.30
2013,04,22,05,42,3.30
2013,04,22,05,43,3.30
2013,04,22,05,44,3.30
2013,04,22,05,45,3.20
2013,04,22,05,46,3.20
2013,04,22,05,47,3.10
2013,04,22,05,48,3.10
2013,04,22,05,49,3.00
2013,04,22,05,50,2.90
2013,04,22,05,51,2.70
2013,04,22,05,52,2.60
2013,04,22,05,53,2.40
2013,04,22,05,54,2.20
2013,04,22,05,55,2.20
2013,04,22,05,56,2.10
2013,04,22,05,57,2.10
2013,04,22,05,58,2.10
2013,04,22,05,59,2.10
2013,04,22,06,00,2.10
2013,04,22,06,01,2.10
2013,04,22,06,02,2.20
2013,04,22,06,03,2.20
2013,04,22,06,04,2.20
2013,04,22,06,05,2.20
2013,04,22,06,06,2.20
2013,04,22,06,07,2.20
2013,04,22,06,08,2.20
2013,04,22,06,09,2.30
2013,04,22,06,10,2.30
2013,04,22,06,11,2.30
2013,04,22,06,12,2.30
2013,04,22,06,13,2.30
2013,04,22,06,14,2.30
2013,04,22,06,15,2.30
2013,04,22,06,16,2.30
2013,04,22,06,17,2.30
2013,04,22,06,18,2.30
2013,04,22,06,19,2.30
2013,04,22,06,20,2.30
2013,04,22,06,21,2.20
2013,04,22,06,22,2.20
2013,04,22,06,23,2.20
2013,04,22,06,24,2.20
2013,04,22,06,25,2.20
2013,04,22,06,26,2.20
2013,04,22,06,27,2.20
2013,04,22,06,28,2.20
2013,04,22,06,29,2.10
2013,04,22,06,30,2.10
2013,04,22,06,31,2.10
2013,04,22,06,32,2.10
2013,04,22,06,33,2.00
2013,04,22,06,34,2.00
2013,04,22,06,35,1.90
2013,04,22,06,36,1.90
2013,04,22,06,37,1.90
2013,04,22,06,38,1.80
2013,04,22,06,39,1.80
2013,04,22,06,40,1.80
2013,04,22,06,41,1.90
2013,04,22,06,42,1.90
2013,04,22,06,43,1.90
2013,04,22,06,44,2.00
2013,04,22,06,45,2.10
2013,04,22,06,46,2.10
2013,04,22,06,47,2.20
2013,04,22,06,48,2.20
2013,04,22,06,49,2.20
2013,04,22,06,50,2.30
2013,04,22,06,51,2.40
2013,04,22,06,52,2.40
2013,04,22,06,53,2.50
2013,04,22,06,54,2.60
2013,04,22,06,55,2.70
2013,04,22,06,56,2.80
2013,04,22,06,57,2.90
2013,04,22,06,58,3.00
2013,04,22,06,59,3.10
2013,04,22,07,00,3.20
2013,04,22,07,01,3.30
2013,04,22,07,02,3.30
2013,04,22,07,03,3.40
2013,04,22,07,04,3.50
2013,04,22,07,05,3.70
2013,04,22,07,06,3.80
2013,04,22,07,07,3.90
2013,04,22,07,08,3.90
2013,04,22,07,09,4.00
2013,04,22,07,10,4.00
2013,04,22,07,11,4.10
2013,04,22,07,12,4.20
2013,04,22,07,13,4.20
2013,04,22,07,14,4.30
2013,04,22,07,15,4.40
2013,04,22,07,16,4.50
2013,04,22,07,17,4.50
2013,04,22,07,18,4.60
2013,04,22,07,19,4.70
2013,04,22,07,20,4.70
2013,04,22,07,21,4.80
2013,04,22,07,22,4.90
2013,04,22,07,23,4.90
2013,04,22,07,24,4.90
2013,04,22,07,25,4.90
2013,04,22,07,26,5.00
2013,04,22,07,27,5.10
2013,04,22,07,28,5.10
2013,04,22,07,29,5.10
2013,04,22,07,30,5.20
2013,04,22,07,31,5.30
2013,04,22,07,32,5.30
2013,04,22,07,33,5.30
2013,04,22,07,34,5.30
2013,04,22,07,35,5.40
2013,04,22,07,36,5.40
2013,04,22,07,37,5.40
2013,04,22,07,38,5.50
2013,04,22,07,39,5.60
2013,04,22,07,40,5.60
2013,04,22,07,41,5.70
2013,04,22,07,42,5.70
2013,04,22,07,43,5.80
2013,04,22,07,44,5.80
2013,04,22,07,45,5.90
2013,04,22,07,46,6.00
2013,04,22,07,47,6.00
2013,04,22,07,48,6.10
2013,04,22,07,49,6.20
2013,04,22,07,50,6.20
2013,04,22,07,51,6.20
2013,04,22,07,52,6.30
2013,04,22,07,53,6.40
2013,04,22,07,54,6.40
2013,04,22,07,55,6.40
2013,04,22,07,56,6.50
2013,04,22,07,57,6.60
2013,04,22,07,58,6.60
2013,04,22,07,59,6.70
2013,04,22,08,00,6.70
2013,04,22,08,01,6.80
2013,04,22,08,02,6.80
2013,04,22,08,03,6.90
2013,04,22,08,04,6.90
2013,04,22,08,05,7.00
2013,04,22,08,06,7.10
2013,04,22,08,07,7.00
2013,04,22,08,08,7.00
2013,04,22,08,09,7.10
2013,04,22,08,10,7.20
2013,04,22,08,11,7.20
2013,04,22,08,12,7.30
2013,04,22,08,13,7.40
2013,04,22,08,14,7.50
2013,04,22,08,15,7.50
2013,04,22,08,16,7.50
2013,04,22,08,17,7.60
2013,04,22,08,18,7.60
2013,04,22,08,19,7.70
2013,04,22,08,20,7.70
2013,04,22,08,21,7.70
2013,04,22,08,22,7.70
2013,04,22,08,23,7.70
2013,04,22,08,24,7.80
2013,04,22,08,25,7.80
2013,04,22,08,26,7.80
2013,04,22,08,27,7.80
2013,04,22,08,28,7.90
2013,04,22,08,29,8.00
2013,04,22,08,30,8.00
2013,04,22,08,31,8.10
2013,04,22,08,32,8.20
2013,04,22,08,33,8.10
2013,04,22,08,34,8.20
2013,04,22,08,35,8.20
2013,04,22,08,36,8.30
2013,04,22,08,37,8.30
2013,04,22,08,38,8.40
2013,04,22,08,39,8.50
2013,04,22,08,40,8.60
2013,04,22,08,41,8.60
2013,04,22,08,42,8.60
2013,04,22,08,43,8.60
2013,04,22,08,44,8.70
2013,04,22,08,45,8.60
2013,04,22,08,46,8.60
2013,04,22,08,47,8.70
2013,04,22,08,48,8.70
2013,04,22,08,49,8.70
2013,04,22,08,50,8.70
2013,04,22,08,51,8.70
2013,04,22,08,52,8.70
2013,04,22,08,53,8.80
2013,04,22,08,54,8.80
2013,04,22,08,55,8.90
2013,04,22,08,56,8.90
2013,04,22,08,57,9.00
2013,04,22,08,58,9.10
2013,04,22,08,59,9.20
2013,04,22,09,00,9.20
2013,04,22,09,01,9.20
2013,04,22,09,02,9.20
2013,04,22,09,03,9.20
2013,04,22,09,04,9.10
2013,04,22,09,05,9.10
2013,04,22,09,06,9.10
2013,04,22,09,07,9.10
2013,04,22,09,08,9.10
2013,04,22,09,09,9.10
2013,04,22,09,10,9.10
2013,04,22,09,11,9.20
2013,04,22,09,12,9.20
2013,04,22,09,13,9.20
2013,04,22,09,14,9.30
2013,04,22,09,15,9.40
2013,04,22,09,16,9.40
2013,04,22,09,17,9.30
2013,04,22,09,18,9.30
2013,04,22,09,19,9.30
2013,04,22,09,20,9.30
2013,04,22,09,21,9.30
2013,04,22,09,22,9.30
2013,04,22,09,23,9.30
2013,04,22,09,24,9.30
2013,04,22,09,25,9.30
2013,04,22,09,26,9.30
2013,04,22,09,27,9.40
2013,04,22,09,28,9.40
2013,04,22,09,29,9.40
2013,04,22,09,30,9.40
2013,04,22,09,31,9.40
2013,04,22,09,32,9.50
2013,04,22,09,33,9.50
2013,04,22,09,34,9.60
2013,04,22,09,35,9.70
2013,04,22,09,36,9.80
2013,04,22,09,37,9.70
2013,04,22,09,38,9.70
2013,04,22,09,39,9.80
2013,04,22,09,40,9.80
2013,04,22,09,41,9.90
2013,04,22,09,42,9.80
2013,04,22,09,43,9.80
2013,04,22,09,44,9.90
2013,04,22,09,45,9.90
2013,04,22,09,46,9.90
2013,04,22,09,47,9.80
2013,04,22,09,48,9.80
2013,04,22,09,49,9.90
2013,04,22,09,50,9.90
2013,04,22,09,51,9.80
2013,04,22,09,52,9.90
2013,04,22,09,53,9.90
2013,04,22,09,54,9.90
2013,04,22,09,55,10.00
2013,04,22,09,56,10.10
2013,04,22,09,57,10.10
2013,04,22,09,58,10.10
2013,04,22,09,59,10.00
2013,04,22,10,00,9.90
2013,04,22,10,01,10.00
2013,04,22,10,02,10.10
2013,04,22,10,03,10.10
2013,04,22,10,04,10.10
2013,04,22,10,05,10.10
2013,04,22,10,06,10.10
2013,04,22,10,07,10.10
2013,04,22,10,08,10.20
2013,04,22,10,09,10.20
2013,04,22,10,10,10.40
2013,04,22,10,11,10.40
2013,04,22,10,12,10.40
2013,04,22,10,13,10.40
2013,04,22,10,14,10.30
2013,04,22,10,15,10.20
2013,04,22,10,16,10.20
2013,04,22,10,17,10.20
2013,04,22,10,18,10.30
2013,04,22,10,19,10.30
2013,04,22,10,20,10.30
2013,04,22,10,21,10.30
2013,04,22,10,22,10.30
2013,04,22,10,23,10.40
2013,04,22,10,24,10.40
2013,04,22,10,25,10.20
2013,04,22,10,26,10.30
2013,04,22,10,27,10.40
2013,04,22,10,28,10.30
2013,04,22,10,29,10.20
2013,04,22,10,30,10.10
2013,04,22,10,31,10.00
2013,04,22,10,32,10.10
2013,04,22,10,33,9.90
2013,04,22,10,34,9.90
2013,04,22,10,35,9.90
2013,04,22,10,36,9.90
2013,04,22,10,37,9.90
2013,04,22,10,38,10.00
2013,04,22,10,39,10.10
2013,04,22,10,40,10.20
2013,04,22,10,41,10.30
2013,04,22,10,42,10.30
2013,04,22,10,43,10.40
2013,04,22,10,44,10.60
2013,04,22,10,45,10.80
2013,04,22,10,46,10.70
2013,04,22,10,47,10.70
2013,04,22,10,48,10.70
2013,04,22,10,49,10.70
2013,04,22,10,50,10.60
2013,04,22,10,51,10.60
2013,04,22,10,52,10.60
2013,04,22,10,53,10.60
2013,04,22,10,54,10.70
2013,04,22,10,55,10.70
2013,04,22,10,56,10.70
2013,04,22,10,57,10.70
2013,04,22,10,58,10.70
2013,04,22,10,59,10.70
2013,04,22,11,00,10.90
2013,04,22,11,01,10.90
2013,04,22,11,02,10.90
2013,04,22,11,03,10.80
2013,04,22,11,04,10.90
2013,04,22,11,05,10.90
2013,04,22,11,06,10.90
2013,04,22,11,07,10.80
2013,04,22,11,08,10.70
2013,04,22,11,09,10.70
2013,04,22,11,10,10.80
2013,04,22,11,11,10.90
2013,04,22,11,12,10.90
2013,04,22,11,13,11.00
2013,04,22,11,14,11.10
2013,04,22,11,15,11.30
2013,04,22,11,16,11.40
2013,04,22,11,17,11.50
2013,04,22,11,18,11.50
2013,04,22,11,19,11.40
2013,04,22,11,20,11.30
2013,04,22,11,21,11.20
2013,04,22,11,22,11.10
2013,04,22,11,23,11.10
2013,04,22,11,24,11.10
2013,04,22,11,25,11.20
2013,04,22,11,26,11.30
2013,04,22,11,27,11.40
2013,04,22,11,28,11.40
2013,04,22,11,29,11.40
2013,04,22,11,30,11.40
2013,04,22,11,31,11.60
2013,04,22,11,32,11.70
2013,04,22,11,33,11.80
2013,04,22,11,34,11.80
2013,04,22,11,35,11.90
2013,04,22,11,36,12.00
2013,04,22,11,37,12.00
2013,04,22,11,38,11.90
2013,04,22,11,39,11.90
2013,04,22,11,40,11.90
2013,04,22,11,41,11.90
2013,04,22,11,42,11.90
2013,04,22,11,43,11.90
2013,04,22,11,44,11.80
2013,04,22,11,45,11.80
2013,04,22,11,46,11.80
2013,04,22,11,47,11.80
2013,04,22,11,48,11.80
2013,04,22,11,49,11.80
2013,04,22,11,50,11.80
2013,04,22,11,51,11.90
2013,04,22,11,52,11.90
2013,04,22,11,53,11.90
2013,04,22,11,54,11.90
2013,04,22,11,55,12.00
2013,04,22,11,56,12.00
2013,04,22,11,57,12.00
2013,04,22,11,58,12.00
2013,04,22,11,59,11.80
2013,04,22,12,00,11.70
2013,04,22,12,01,11.60
2013,04,22,12,02,11.60
2013,04,22,12,03,11.60
2013,04,22,12,04,11.60
2013,04,22,12,05,11.60
2013,04,22,12,06,11.60
2013,04,22,12,07,11.60
2013,04,22,12,08,11.60
2013,04,22,12,09,11.70
2013,04,22,12,10,11.70
2013,04,22,12,11,11.80
2013,04,22,12,12,11.80
2013,04,22,12,13,11.90
2013,04,22,12,14,12.00
2013,04,22,12,15,12.20
2013,04,22,12,16,12.20
2013,04,22,12,17,12.10
2013,04,22,12,18,12.10
2013,04,22,12,19,12.10
2013,04,22,12,20,12.10
2013,04,22,12,21,12.00
2013,04,22,12,22,11.90
2013,04,22,12,23,11.80
2013,04,22,12,24,11.70
2013,04,22,12,25,11.70
2013,04,22,12,26,11.70
2013,04,22,12,27,11.70
2013,04,22,12,28,11.80
2013,04,22,12,29,11.90
2013,04,22,12,30,12.10
2013,04,22,12,31,12.20
2013,04,22,12,32,12.40
2013,04,22,12,33,12.50
2013,04,22,12,34,12.60
2013,04,22,12,35,12.70
2013,04,22,12,36,12.80
2013,04,22,12,37,12.90
2013,04,22,12,38,12.90
2013,04,22,12,39,12.90
2013,04,22,12,40,12.90
2013,04,22,12,41,12.90
2013,04,22,12,42,12.70
2013,04,22,12,43,12.50
2013,04,22,12,44,12.30
2013,04,22,12,45,12.40
2013,04,22,12,46,12.40
2013,04,22,12,47,12.50
2013,04,22,12,48,12.50
2013,04,22,12,49,12.40
2013,04,22,12,50,12.30
2013,04,22,12,51,12.20
2013,04,22,12,52,12.30
2013,04,22,12,53,12.30
2013,04,22,12,54,12.50
2013,04,22,12,55,12.50
2013,04,22,12,56,12.60
2013,04,22,12,57,12.60
2013,04,22,12,58,12.70
2013,04,22,12,59,12.60
2013,04,22,13,00,12.60
2013,04,22,13,01,12.50
2013,04,22,13,02,12.50
2013,04,22,13,03,12.50
2013,04,22,13,04,12.50
2013,04,22,13,05,12.30
2013,04,22,13,06,12.30
2013,04,22,13,07,12.40
2013,04,22,13,08,12.60
2013,04,22,13,09,12.70
2013,04,22,13,10,12.90
2013,04,22,13,11,13.00
2013,04,22,13,12,13.00
2013,04,22,13,13,13.10
2013,04,22,13,14,13.20
2013,04,22,13,15,13.10
2013,04,22,13,16,13.10
2013,04,22,13,17,13.00
2013,04,22,13,18,13.10
2013,04,22,13,19,13.10
2013,04,22,13,20,13.10
2013,04,22,13,21,13.20
2013,04,22,13,22,13.30
2013,04,22,13,23,13.40
2013,04,22,13,24,13.50
2013,04,22,13,25,13.50
2013,04,22,13,26,13.40
2013,04,22,13,27,13.40
2013,04,22,13,28,13.50
2013,04,22,13,29,13.60
2013,04,22,13,30,13.60
2013,04,22,13,31,13.60
2013,04,22,13,32,13.50
2013,04,22,13,33,13.50
2013,04,22,13,34,13.50
2013,04,22,13,35,13.40
2013,04,22,13,36,13.30
2013,04,22,13,37,13.30
2013,04,22,13,38,13.30
2013,04,22,13,39,13.30
2013,04,22,13,40,13.40
2013,04,22,13,41,13.50
2013,04,22,13,42,13.60
2013,04,22,13,43,13.60
2013,04,22,13,44,13.70
2013,04,22,13,45,13.80
2013,04,22,13,46,13.90
2013,04,22,13,47,14.00
2013,04,22,13,48,14.10
2013,04,22,13,49,14.30
2013,04,22,13,50,14.50
2013,04,22,13,51,14.50
2013,04,22,13,52,14.40
2013,04,22,13,53,14.40
2013,04,22,13,54,14.40
2013,04,22,13,55,14.20
2013,04,22,13,56,14.20
2013,04,22,13,57,14.20
2013,04,22,13,58,14.10
2013,04,22,13,59,14.10
2013,04,22,14,00,14.10
2013,04,22,14,01,14.10
2013,04,22,14,02,14.00
2013,04,22,14,03,14.00
2013,04,22,14,04,14.10
2013,04,22,14,05,14.00
2013,04,22,14,06,14.00
2013,04,22,14,07,14.00
2013,04,22,14,08,14.20
2013,04,22,14,09,14.30
2013,04,22,14,10,14.20
2013,04,22,14,11,14.20
2013,04,22,14,12,14.20
2013,04,22,14,13,14.20
2013,04,22,14,14,14.10
2013,04,22,14,15,14.10
2013,04,22,14,16,14.10
2013,04,22,14,17,14.10
2013,04,22,14,18,14.10
2013,04,22,14,19,14.10
2013,04,22,14,20,14.10
2013,04,22,14,21,14.10
2013,04,22,14,22,14.20
2013,04,22,14,23,14.30
2013,04,22,14,24,14.30
2013,04,22,14,25,14.20
2013,04,22,14,26,14.10
2013,04,22,14,27,14.20
2013,04,22,14,28,14.20
2013,04,22,14,29,14.20
2013,04,22,14,30,14.10
2013,04,22,14,31,14.00
2013,04,22,14,32,14.10
2013,04,22,14,33,14.20
2013,04,22,14,34,14.20
2013,04,22,14,35,14.20
2013,04,22,14,36,14.40
2013,04,22,14,37,14.50
2013,04,22,14,38,14.50
2013,04,22,14,39,14.50
2013,04,22,14,40,14.60
2013,04,22,14,41,14.50
2013,04,22,14,42,14.40
2013,04,22,14,43,14.50
2013,04,22,14,44,14.50
2013,04,22,14,45,14.40
2013,04,22,14,46,14.50
2013,04,22,14,47,14.50
2013,04,22,14,48,14.40
2013,04,22,14,49,14.40
2013,04,22,14,50,14.50
2013,04,22,14,51,14.50
2013,04,22,14,52,14.50
2013,04,22,14,53,14.50
2013,04,22,14,54,14.40
2013,04,22,14,55,14.40
2013,04,22,14,56,14.50
2013,04,22,14,57,14.50
2013,04,22,14,58,14.40
2013,04,22,14,59,14.40
2013,04,22,15,00,14.40
2013,04,22,15,01,14.40
2013,04,22,15,02,14.50
2013,04,22,15,03,14.50
2013,04,22,15,04,14.60
2013,04,22,15,05,14.60
2013,04,22,15,06,14.60
2013,04,22,15,07,14.60
2013,04,22,15,08,14.60
2013,04,22,15,09,14.60
2013,04,22,15,10,14.80
2013,04,22,15,11,14.80
2013,04,22,15,12,14.80
2013,04,22,15,13,14.70
2013,04,22,15,14,14.80
2013,04,22,15,15,14.90
2013,04,22,15,16,15.10
2013,04,22,15,17,15.10
2013,04,22,15,18,15.00
2013,04,22,15,19,14.90
2013,04,22,15,20,15.00
2013,04,22,15,21,15.00
2013,04,22,15,22,15.10
2013,04,22,15,23,15.20
2013,04,22,15,24,15.10
2013,04,22,15,25,15.10
2013,04,22,15,26,15.10
2013,04,22,15,27,15.20
2013,04,22,15,28,15.10
2013,04,22,15,29,15.00
2013,04,22,15,30,14.90
2013,04,22,15,31,14.80
2013,04,22,15,32,14.80
2013,04,22,15,33,14.90
2013,04,22,15,34,15.00
2013,04,22,15,35,15.10
2013,04,22,15,36,15.10
2013,04,22,15,37,15.10
2013,04,22,15,38,15.20
2013,04,22,15,39,15.20
2013,04,22,15,40,15.30
2013,04,22,15,41,15.40
2013,04,22,15,42,15.40
2013,04,22,15,43,15.40
2013,04,22,15,44,15.30
2013,04,22,15,45,15.30
2013,04,22,15,46,15.20
2013,04,22,15,47,15.20
2013,04,22,15,48,15.20
2013,04,22,15,49,15.20
2013,04,22,15,50,15.20
2013,04,22,15,51,15.30
2013,04,22,15,52,15.40
2013,04,22,15,53,15.40
2013,04,22,15,54,15.40
2013,04,22,15,55,15.50
2013,04,22,15,56,15.50
2013,04,22,15,57,15.60
2013,04,22,15,58,15.60
2013,04,22,15,59,15.60
2013,04,22,16,00,15.60
2013,04,22,16,01,15.60
2013,04,22,16,02,15.50
2013,04,22,16,03,15.50
2013,04,22,16,04,15.50
2013,04,22,16,05,15.50
2013,04,22,16,06,15.40
2013,04,22,16,07,15.30
2013,04,22,16,08,15.40
2013,04,22,16,09,15.30
2013,04,22,16,10,15.30
2013,04,22,16,11,15.30
2013,04,22,16,12,15.30
2013,04,22,16,13,15.30
2013,04,22,16,14,15.40
2013,04,22,16,15,15.40
2013,04,22,16,16,15.30
2013,04,22,16,17,15.20
2013,04,22,16,18,15.20
2013,04,22,16,19,15.30
2013,04,22,16,20,15.30
2013,04,22,16,21,15.30
2013,04,22,16,22,15.50
2013,04,22,16,23,15.50
2013,04,22,16,24,15.50
2013,04,22,16,25,15.50
2013,04,22,16,26,15.50
2013,04,22,16,27,15.60
2013,04,22,16,28,15.50
2013,04,22,16,29,15.50
2013,04,22,16,30,15.40
2013,04,22,16,31,15.20
2013,04,22,16,32,15.20
2013,04,22,16,33,15.20
2013,04,22,16,34,15.20
2013,04,22,16,35,15.10
2013,04,22,16,36,15.10
2013,04,22,16,37,15.10
2013,04,22,16,38,15.20
2013,04,22,16,39,15.30
2013,04,22,16,40,15.40
2013,04,22,16,41,15.40
2013,04,22,16,42,15.40
2013,04,22,16,43,15.50
2013,04,22,16,44,15.60
2013,04,22,16,45,15.60
2013,04,22,16,46,15.50
2013,04,22,16,47,15.40
2013,04,22,16,48,15.40
2013,04,22,16,49,15.50
2013,04,22,16,50,15.50
2013,04,22,16,51,15.60
2013,04,22,16,52,15.60
2013,04,22,16,53,15.50
2013,04,22,16,54,15.50
2013,04,22,16,55,15.50
2013,04,22,16,56,15.50
2013,04,22,16,57,15.50
2013,04,22,16,58,15.50
2013,04,22,16,59,15.60
2013,04,22,17,00,15.60
2013,04,22,17,01,15.60
2013,04,22,17,02,15.60
2013,04,22,17,03,15.50
2013,04,22,17,04,15.50
2013,04,22,17,05,15.50
2013,04,22,17,06,15.40
2013,04,22,17,07,15.40
2013,04,22,17,08,15.50
2013,04,22,17,09,15.60
2013,04,22,17,10,15.70
2013,04,22,17,11,15.80
2013,04,22,17,12,15.80
2013,04,22,17,13,15.70
2013,04,22,17,14,15.60
2013,04,22,17,15,15.60
2013,04,22,17,16,15.60
2013,04,22,17,17,15.60
2013,04,22,17,18,15.60
2013,04,22,17,19,15.50
2013,04,22,17,20,15.50
2013,04,22,17,21,15.40
2013,04,22,17,22,15.50
2013,04,22,17,23,15.60
2013,04,22,17,24,15.70
2013,04,22,17,25,15.70
2013,04,22,17,26,15.70
2013,04,22,17,27,15.70
2013,04,22,17,28,15.70
2013,04,22,17,29,15.70
2013,04,22,17,30,15.70
2013,04,22,17,31,15.70
2013,04,22,17,32,15.70
2013,04,22,17,33,15.70
2013,04,22,17,34,15.70
2013,04,22,17,35,15.80
2013,04,22,17,36,15.80
2013,04,22,17,37,15.80
2013,04,22,17,38,15.80
2013,04,22,17,39,15.80
2013,04,22,17,40,15.80
2013,04,22,17,41,15.80
2013,04,22,17,42,15.80
2013,04,22,17,43,15.80
2013,04,22,17,44,15.80
2013,04,22,17,45,15.80